TimePST,TemperatureF,Dew PointF,Humidity,Sea Level PressureIn,VisibilityMPH,Wind Direction,Wind SpeedMPH,Gust SpeedMPH,PrecipitationIn,Events,Conditions,WindDirDegrees,DateUTC
12:13 AM,50.0,46.4,87,30.25,0.8,South,11.5,21.9,0.03,Rain,Light Rain,180,2013-03-01 08:13:00
12:53 AM,50.0,46.4,87,30.26,0.8,South,10.4,20.7,N/A,Rain,Light Rain,190,2013-03-01 08:53:00
1:53 AM,50.0,46.9,89,30.28,0.5,South,10.4,21.9,0.05,Fog-Rain,Light Rain,180,2013-03-01 09:53:00
2:23 AM,50.0,46.4,87,30.26,1.0,South,12.7,23.0,0.06,Rain,Light Rain,190,2013-03-01 10:23:00
2:42 AM,50.0,46.4,87,30.26,0.8,South,15.0,24.2,N/A,Rain,Light Rain,180,2013-03-01 10:42:00
2:53 AM,50.0,46.9,89,30.26,0.8,South,11.5,23.0,0.10,Rain,Rain,180,2013-03-01 10:53:00
3:02 AM,50.0,46.4,87,30.25,1.0,South,10.4,19.6,0.04,Rain,Rain,180,2013-03-01 11:02:00
3:09 AM,50.0,46.4,87,30.25,2.0,South,11.5,23.0,0.05,Rain,Light Rain,180,2013-03-01 11:09:00
3:25 AM,50.0,46.4,87,30.26,1.2,South,12.7,25.3,0.06,Rain,Rain,190,2013-03-01 11:25:00
3:40 AM,50.0,46.4,87,30.26,2.0,South,12.7,21.9,0.10,Rain,Light Rain,180,2013-03-01 11:40:00
3:49 AM,50.0,46.4,87,30.26,4.0,South,10.4,21.9,0.10,Rain,Light Rain,180,2013-03-01 11:49:00
3:53 AM,50.0,46.9,89,30.26,3.0,South,13.8,26.5,0.11,Rain,Light Rain,180,2013-03-01 11:53:00
3:56 AM,50.0,46.4,87,30.26,1.8,South,11.5,26.5,0.00,Rain,Light Rain,190,2013-03-01 11:56:00
4:22 AM,50.0,46.4,87,30.26,1.0,South,13.8,26.5,0.04,Rain,Light Rain,190,2013-03-01 12:22:00
4:31 AM,50.0,46.4,87,30.26,0.8,South,15.0,25.3,0.04,Rain,Light Rain,180,2013-03-01 12:31:00
4:53 AM,50.0,46.9,89,30.27,0.8,South,15.0,25.3,0.05,Rain,Light Rain,190,2013-03-01 12:53:00
5:45 AM,50.0,46.4,87,30.27,1.0,South,12.7,27.6,0.06,Rain,Light Rain,180,2013-03-01 13:45:00
5:53 AM,50.0,46.9,89,30.28,1.2,South,13.8,21.9,0.07,Rain,Light Rain,180,2013-03-01 13:53:00
6:11 AM,50.0,46.4,87,30.28,0.8,South,17.3,27.6,0.01,Rain,Light Rain,190,2013-03-01 14:11:00
6:31 AM,50.0,46.4,87,30.28,0.8,South,15.0,27.6,0.02,Rain,Light Rain,180,2013-03-01 14:31:00
6:53 AM,50.0,46.9,89,30.29,0.8,South,12.7,27.6,0.03,Rain,Light Rain,190,2013-03-01 14:53:00
7:53 AM,50.0,46.9,89,30.29,0.5,South,10.4,27.6,0.01,Fog-Rain,Light Rain,190,2013-03-01 15:53:00
8:06 AM,50.0,46.4,87,30.29,0.2,South,10.4,24.2,0.01,Fog-Rain,Light Rain,190,2013-03-01 16:06:00
8:22 AM,50.0,46.4,87,30.29,0.5,South,12.7,28.8,0.01,Fog-Rain,Light Rain,180,2013-03-01 16:22:00
8:31 AM,50.0,46.4,87,30.30,0.2,South,13.8,24.2,0.01,Fog-Rain,Light Rain,190,2013-03-01 16:31:00
8:53 AM,50.0,46.9,89,30.29,0.2,South,11.5,27.6,0.02,Fog-Rain,Light Rain,180,2013-03-01 16:53:00
9:53 AM,50.0,46.9,89,30.30,0.2,South,18.4,29.9,0.00,Fog-Rain,Light Rain,190,2013-03-01 17:53:00
10:53 AM,50.0,46.9,89,30.30,0.2,South,15.0,29.9,0.01,Fog,Fog,190,2013-03-01 18:53:00
11:53 AM,50.0,46.9,89,30.30,0.2,South,11.5,27.6,0.01,Fog,Fog,180,2013-03-01 19:53:00
12:53 PM,50.0,46.9,89,30.30,0.2,South,17.3,33.4,0.00,Fog-Rain,Light Rain,180,2013-03-01 20:53:00
1:53 PM,50.0,46.9,89,30.28,0.2,South,19.6,28.8,0.03,Fog-Rain,Light Rain,190,2013-03-01 21:53:00
2:30 PM,50.0,46.4,87,30.28,0.5,South,11.5,24.2,0.08,Fog-Rain,Rain,190,2013-03-01 22:30:00
2:53 PM,50.0,46.9,89,30.28,0.5,South,13.8,23.0,0.12,Fog-Rain,Light Rain,180,2013-03-01 22:53:00
3:53 PM,50.0,46.9,89,30.27,0.8,South,10.4,24.2,0.07,Rain,Light Rain,190,2013-03-01 23:53:00
4:53 PM,50.0,46.9,89,30.27,0.2,South,13.8,23.0,0.11,Fog-Rain,Rain,190,2013-03-02 00:53:00
5:05 PM,50.0,46.4,87,30.26,0.5,South,10.4,24.2,0.04,Fog-Rain,Light Rain,180,2013-03-02 01:05:00
5:53 PM,50.0,46.9,89,30.27,0.2,South,12.7,20.7,0.16,Fog-Rain,Light Rain,190,2013-03-02 01:53:00
6:04 PM,50.0,46.4,87,30.26,0.8,South,11.5,24.2,0.04,Rain,Rain,180,2013-03-02 02:04:00
6:32 PM,50.0,46.4,87,30.26,1.0,South,11.5,20.7,0.11,Rain,Light Rain,180,2013-03-02 02:32:00
6:53 PM,50.0,46.9,89,30.27,1.0,South,13.8,23.0,0.15,Rain,Light Rain,190,2013-03-02 02:53:00
7:06 PM,50.0,46.4,87,30.26,0.8,South,12.7,21.9,0.03,Rain,Rain,190,2013-03-02 03:06:00
7:14 PM,50.0,46.4,87,30.26,0.8,South,12.7,20.7,0.06,Rain,Rain,180,2013-03-02 03:14:00
7:22 PM,50.0,46.4,87,30.27,0.8,South,9.2,20.7,0.10,Rain,Rain,180,2013-03-02 03:22:00
7:40 PM,50.0,46.4,87,30.26,1.0,South,12.7,19.6,0.19,Rain,Rain,190,2013-03-02 03:40:00
7:53 PM,50.0,46.9,89,30.27,1.5,South,11.5,20.7,0.21,Rain,Rain,190,2013-03-02 03:53:00
8:03 PM,50.0,46.4,87,30.26,1.2,South,9.2,20.7,0.03,Rain,Light Rain,180,2013-03-02 04:03:00
8:53 PM,50.0,46.9,89,30.27,1.0,South,13.8,21.9,0.13,Rain,Light Rain,180,2013-03-02 04:53:00
9:02 PM,50.0,46.4,87,30.26,0.8,South,11.5,21.9,0.03,Rain,Light Rain,190,2013-03-02 05:02:00
9:10 PM,50.0,46.4,87,30.26,1.2,South,10.4,17.3,0.04,Rain,Light Rain,190,2013-03-02 05:10:00
9:53 PM,50.0,46.9,89,30.26,1.0,South,10.4,18.4,0.12,Rain,Light Rain,190,2013-03-02 05:53:00
10:43 PM,48.2,46.4,93,30.25,1.0,SSW,8.1,-,0.09,Rain,Light Rain,200,2013-03-02 06:43:00
10:53 PM,48.9,46.9,93,30.25,1.0,South,6.9,-,0.11,Rain,Light Rain,190,2013-03-02 06:53:00
11:53 PM,48.9,46.9,93,30.25,1.0,South,8.1,-,0.09,Rain,Light Rain,190,2013-03-02 07:53:00